"Time","Value","Approval","myLocation"
"2023-03-30 00:00",4.41556725300886,"Approved","OW360"
"2023-03-30 01:00",4.41656659172067,"Approved","OW360"
"2023-03-30 02:00",4.41656593043248,"Approved","OW360"
"2023-03-30 03:00",4.41756526914429,"Approved","OW360"
"2023-03-30 04:00",4.4185646078561,"Approved","OW360"
"2023-03-30 05:00",4.41956394656791,"Approved","OW360"
"2023-03-30 06:00",4.41956328527973,"Approved","OW360"
"2023-03-30 07:00",4.41956262399154,"Approved","OW360"
"2023-03-30 08:00",4.42056196270335,"Approved","OW360"
"2023-03-30 09:00",4.42056130141516,"Approved","OW360"
"2023-03-30 10:00",4.42056064012697,"Approved","OW360"
"2023-03-30 11:00",4.42155997883878,"Approved","OW360"
"2023-03-30 12:00",4.42155931755059,"Approved","OW360"
"2023-03-30 13:00",4.4225586562624,"Approved","OW360"
"2023-03-30 14:00",4.42255799497421,"Approved","OW360"
"2023-03-30 15:00",4.42455733368602,"Approved","OW360"
"2023-03-30 16:00",4.42455667239783,"Approved","OW360"
"2023-03-30 17:00",4.42355601110964,"Approved","OW360"
"2023-03-30 18:00",4.42455534982145,"Approved","OW360"
"2023-03-30 19:00",4.42555468853326,"Approved","OW360"
"2023-03-30 20:00",4.42555402724507,"Approved","OW360"
"2023-03-30 21:00",4.42655336595688,"Approved","OW360"
"2023-03-30 22:00",4.42655270466869,"Approved","OW360"
"2023-03-30 23:00",4.4275520433805,"Approved","OW360"
"2023-03-31 00:00",4.42655138209232,"Approved","OW360"
"2023-03-31 01:00",4.42755072080413,"Approved","OW360"
"2023-03-31 02:00",4.42855005951594,"Approved","OW360"
"2023-03-31 03:00",4.42954939822775,"Approved","OW360"
"2023-03-31 04:00",4.43054873693956,"Approved","OW360"
"2023-03-31 05:00",4.43154807565137,"Approved","OW360"
"2023-03-31 06:00",4.43154741436318,"Approved","OW360"
"2023-03-31 07:00",4.43154675307499,"Approved","OW360"
"2023-03-31 08:00",4.4315460917868,"Approved","OW360"
"2023-03-31 09:00",4.43254543049861,"Approved","OW360"
"2023-03-31 10:00",4.43254476921042,"Approved","OW360"
"2023-03-31 11:00",4.43354410792223,"Approved","OW360"
"2023-03-31 12:00",4.43354344663404,"Approved","OW360"
"2023-03-31 13:00",4.43454278534585,"Approved","OW360"
"2023-03-31 14:00",4.43454212405766,"Approved","OW360"
"2023-03-31 15:00",4.43454146276947,"Approved","OW360"
"2023-03-31 16:00",4.43454080148129,"Approved","OW360"
"2023-03-31 17:00",4.4375401401931,"Approved","OW360"
"2023-03-31 18:00",4.43553947890491,"Approved","OW360"
"2023-03-31 19:00",4.43653881761672,"Approved","OW360"
"2023-03-31 20:00",4.43853815632853,"Approved","OW360"
"2023-03-31 21:00",4.43653749504034,"Approved","OW360"
"2023-03-31 22:00",4.43553683375215,"Approved","OW360"
"2023-03-31 23:00",4.43553617246396,"Approved","OW360"
"2023-04-01 00:00",4.43853551117577,"Approved","OW360"
"2023-04-01 01:00",4.43453484988758,"Approved","OW360"
"2023-04-01 02:00",4.43353418859939,"Approved","OW360"
"2023-04-01 03:00",4.4335335273112,"Approved","OW360"
"2023-04-01 04:00",4.43353286602301,"Approved","OW360"
"2023-04-01 05:00",4.43553220473482,"Approved","OW360"
"2023-04-01 06:00",4.43453154344663,"Approved","OW360"
"2023-04-01 07:00",4.43753088215844,"Approved","OW360"
"2023-04-01 08:00",4.43853022087026,"Approved","OW360"
"2023-04-01 09:00",4.43852955958207,"Approved","OW360"
"2023-04-01 10:00",4.43852889829388,"Approved","OW360"
"2023-04-01 11:00",4.43952823700569,"Approved","OW360"
"2023-04-01 12:00",4.4405275757175,"Approved","OW360"
"2023-04-01 13:00",4.44052691442931,"Approved","OW360"
"2023-04-01 14:00",4.44152625314112,"Approved","OW360"
"2023-04-01 15:00",4.44252559185293,"Approved","OW360"
"2023-04-01 16:00",4.44152493056474,"Approved","OW360"
"2023-04-01 17:00",4.44252426927655,"Approved","OW360"
"2023-04-01 18:00",4.44352360798836,"Approved","OW360"
"2023-04-01 19:00",4.44352294670017,"Approved","OW360"
"2023-04-01 20:00",4.44452228541198,"Approved","OW360"
"2023-04-01 21:00",4.44452162412379,"Approved","OW360"
"2023-04-01 22:00",4.4445209628356,"Approved","OW360"
"2023-04-01 23:00",4.44452030154741,"Approved","OW360"
"2023-04-02 00:00",4.44551964025923,"Approved","OW360"
"2023-04-02 01:00",4.44651897897104,"Approved","OW360"
"2023-04-02 02:00",4.44751831768285,"Approved","OW360"
"2023-04-02 03:00",4.44751765639466,"Approved","OW360"
"2023-04-02 04:00",4.44951699510647,"Approved","OW360"
"2023-04-02 05:00",4.44951633381828,"Approved","OW360"
"2023-04-02 06:00",4.45051567253009,"Approved","OW360"
"2023-04-02 07:00",4.4505150112419,"Approved","OW360"
"2023-04-02 08:00",4.45051434995371,"Approved","OW360"
"2023-04-02 09:00",4.45051368866552,"Approved","OW360"
"2023-04-02 10:00",4.45151302737733,"Approved","OW360"
"2023-04-02 11:00",4.45051236608914,"Approved","OW360"
"2023-04-02 12:00",4.45151170480095,"Approved","OW360"
"2023-04-02 13:00",4.45251104351276,"Approved","OW360"
"2023-04-02 14:00",4.45351038222457,"Approved","OW360"
"2023-04-02 15:00",4.45350972093638,"Approved","OW360"
"2023-04-02 16:00",4.45350905964819,"Approved","OW360"
"2023-04-02 17:00",4.45450839836001,"Approved","OW360"
"2023-04-02 18:00",4.45450773707182,"Approved","OW360"
"2023-04-02 19:00",4.45550707578363,"Approved","OW360"
"2023-04-02 20:00",4.45650641449544,"Approved","OW360"
"2023-04-02 21:00",4.45650575320725,"Approved","OW360"
"2023-04-02 22:00",4.45750509191906,"Approved","OW360"
"2023-04-02 23:00",4.45750443063087,"Approved","OW360"
"2023-04-03 00:00",4.45750376934268,"Approved","OW360"
"2023-04-03 01:00",4.45850310805449,"Approved","OW360"
"2023-04-03 02:00",4.4585024467663,"Approved","OW360"
"2023-04-03 03:00",4.46050178547811,"Approved","OW360"
"2023-04-03 04:00",4.46150112418992,"Approved","OW360"
"2023-04-03 05:00",4.46150046290173,"Approved","OW360"
"2023-04-03 06:00",4.46149980161354,"Approved","OW360"
"2023-04-03 07:00",4.46349914032535,"Approved","OW360"
"2023-04-03 08:00",4.46249847903716,"Approved","OW360"
"2023-04-03 09:00",4.46449781774897,"Approved","OW360"
"2023-04-03 10:00",4.46449715646079,"Approved","OW360"
"2023-04-03 11:00",4.4654964951726,"Approved","OW360"
"2023-04-03 12:00",4.46649583388441,"Approved","OW360"
"2023-04-03 13:00",4.46749517259622,"Approved","OW360"
"2023-04-03 14:00",4.46849451130803,"Approved","OW360"
"2023-04-03 15:00",4.46949385001984,"Approved","OW360"
"2023-04-03 16:00",4.46949318873165,"Approved","OW360"
"2023-04-03 17:00",4.46949252744346,"Approved","OW360"
"2023-04-03 18:00",4.47049186615527,"Approved","OW360"
"2023-04-03 19:00",4.47149120486708,"Approved","OW360"
"2023-04-03 20:00",4.47149054357889,"Approved","OW360"
"2023-04-03 21:00",4.4714898822907,"Approved","OW360"
"2023-04-03 22:00",4.47348922100251,"Approved","OW360"
"2023-04-03 23:00",4.47248855971432,"Approved","OW360"
"2023-04-04 00:00",4.47248789842613,"Approved","OW360"
"2023-04-04 01:00",4.47348723713795,"Approved","OW360"
"2023-04-04 02:00",4.47348657584976,"Approved","OW360"
"2023-04-04 03:00",4.47448591456157,"Approved","OW360"
"2023-04-04 04:00",4.47548525327338,"Approved","OW360"
"2023-04-04 05:00",4.47648459198519,"Approved","OW360"
"2023-04-04 06:00",4.476483930697,"Approved","OW360"
"2023-04-04 07:00",4.47748326940881,"Approved","OW360"
"2023-04-04 08:00",4.47848260812062,"Approved","OW360"
"2023-04-04 09:00",4.47848194683243,"Approved","OW360"
"2023-04-04 10:00",4.47948128554424,"Approved","OW360"
"2023-04-04 11:00",4.48048062425605,"Approved","OW360"
"2023-04-04 12:00",4.48147996296786,"Approved","OW360"
"2023-04-04 13:00",4.48247930167967,"Approved","OW360"
"2023-04-04 14:00",4.48347864039148,"Approved","OW360"
"2023-04-04 15:00",4.48447797910329,"Approved","OW360"
"2023-04-04 16:00",4.4854773178151,"Approved","OW360"
"2023-04-04 17:00",4.48647665652691,"Approved","OW360"
"2023-04-04 18:00",4.48647599523873,"Approved","OW360"
"2023-04-04 19:00",4.48747533395054,"Approved","OW360"
"2023-04-04 20:00",4.48747467266235,"Approved","OW360"
"2023-04-04 21:00",4.48847401137416,"Approved","OW360"
"2023-04-04 22:00",4.48847335008597,"Approved","OW360"
"2023-04-04 23:00",4.48947268879778,"Approved","OW360"
"2023-04-05 00:00",4.48947202750959,"Approved","OW360"
"2023-04-05 01:00",4.4904713662214,"Approved","OW360"
"2023-04-05 02:00",4.49047070493321,"Approved","OW360"
"2023-04-05 03:00",4.49247004364502,"Approved","OW360"
"2023-04-05 04:00",4.49346938235683,"Approved","OW360"
"2023-04-05 05:00",4.49446872106864,"Approved","OW360"
"2023-04-05 06:00",4.49346805978045,"Approved","OW360"
"2023-04-05 07:00",4.49446739849226,"Approved","OW360"
"2023-04-05 08:00",4.49546673720407,"Approved","OW360"
"2023-04-05 09:00",4.49646607591588,"Approved","OW360"
"2023-04-05 10:00",4.49646541462769,"Approved","OW360"
"2023-04-05 11:00",4.49746475333951,"Approved","OW360"
"2023-04-05 12:00",4.49846409205132,"Approved","OW360"
"2023-04-05 13:00",4.49846343076313,"Approved","OW360"
"2023-04-05 14:00",4.49946276947494,"Approved","OW360"
"2023-04-05 15:00",4.49946210818675,"Approved","OW360"
"2023-04-05 16:00",4.50046144689856,"Approved","OW360"
"2023-04-05 17:00",4.50046078561037,"Approved","OW360"
"2023-04-05 18:00",4.50146012432218,"Approved","OW360"
"2023-04-05 19:00",4.50145946303399,"Approved","OW360"
"2023-04-05 20:00",4.5014588017458,"Approved","OW360"
"2023-04-05 21:00",4.50245814045761,"Approved","OW360"
"2023-04-05 22:00",4.50245747916942,"Approved","OW360"
"2023-04-05 23:00",4.50245681788123,"Approved","OW360"
"2023-04-06 00:00",4.50245615659304,"Approved","OW360"
"2023-04-06 01:00",4.50345549530485,"Approved","OW360"
"2023-04-06 02:00",4.50345483401666,"Approved","OW360"
"2023-04-06 03:00",4.50745417272848,"Approved","OW360"
"2023-04-06 04:00",4.50645351144029,"Approved","OW360"
"2023-04-06 05:00",4.5054528501521,"Approved","OW360"
"2023-04-06 06:00",4.50645218886391,"Approved","OW360"
"2023-04-06 07:00",4.50645152757572,"Approved","OW360"
"2023-04-06 08:00",4.50645086628753,"Approved","OW360"
"2023-04-06 09:00",4.50645020499934,"Approved","OW360"
"2023-04-06 10:00",4.50644954371115,"Approved","OW360"
"2023-04-06 11:00",4.50744888242296,"Approved","OW360"
"2023-04-06 12:00",4.50744822113477,"Approved","OW360"
"2023-04-06 13:00",4.50744755984658,"Approved","OW360"
"2023-04-06 14:00",4.50844689855839,"Approved","OW360"
"2023-04-06 15:00",4.5094462372702,"Approved","OW360"
"2023-04-06 16:00",4.50944557598201,"Approved","OW360"
"2023-04-06 17:00",4.51044491469382,"Approved","OW360"
"2023-04-06 18:00",4.50944425340563,"Approved","OW360"
"2023-04-06 19:00",4.51044359211745,"Approved","OW360"
"2023-04-06 20:00",4.51044293082926,"Approved","OW360"
"2023-04-06 21:00",4.51144226954107,"Approved","OW360"
"2023-04-06 22:00",4.51144160825288,"Approved","OW360"
"2023-04-06 23:00",4.51244094696469,"Approved","OW360"
"2023-04-07 00:00",4.5124402856765,"Approved","OW360"
"2023-04-07 01:00",4.51243962438831,"Approved","OW360"
"2023-04-07 02:00",4.51343896310012,"Approved","OW360"
"2023-04-07 03:00",4.51443830181193,"Approved","OW360"
"2023-04-07 04:00",4.51543764052374,"Approved","OW360"
"2023-04-07 05:00",4.51543697923555,"Approved","OW360"
"2023-04-07 06:00",4.51643631794736,"Approved","OW360"
"2023-04-07 07:00",4.51643565665917,"Approved","OW360"
"2023-04-07 08:00",4.51743499537098,"Approved","OW360"
"2023-04-07 09:00",4.51843433408279,"Approved","OW360"
"2023-04-07 10:00",4.5204336727946,"Approved","OW360"
"2023-04-07 11:00",4.52043301150641,"Approved","OW360"
"2023-04-07 12:00",4.52143235021823,"Approved","OW360"
"2023-04-07 13:00",4.52243168893004,"Approved","OW360"
"2023-04-07 14:00",4.52343102764185,"Approved","OW360"
"2023-04-07 15:00",4.52443036635366,"Approved","OW360"
"2023-04-07 16:00",4.52542970506547,"Approved","OW360"
"2023-04-07 17:00",4.52642904377728,"Approved","OW360"
"2023-04-07 18:00",4.52742838248909,"Approved","OW360"
"2023-04-07 19:00",4.5274277212009,"Approved","OW360"
"2023-04-07 20:00",4.52842705991271,"Approved","OW360"
"2023-04-07 21:00",4.52942639862452,"Approved","OW360"
"2023-04-07 22:00",4.53042573733633,"Approved","OW360"
"2023-04-07 23:00",4.53042507604814,"Approved","OW360"
"2023-04-08 00:00",4.53042441475995,"Approved","OW360"
"2023-04-08 01:00",4.53242375347176,"Approved","OW360"
"2023-04-08 02:00",4.53342309218357,"Approved","OW360"
"2023-04-08 03:00",4.53442243089538,"Approved","OW360"
"2023-04-08 04:00",4.53542176960719,"Approved","OW360"
"2023-04-08 05:00",4.53742110831901,"Approved","OW360"
"2023-04-08 06:00",4.53742044703082,"Approved","OW360"
"2023-04-08 07:00",4.53841978574263,"Approved","OW360"
"2023-04-08 08:00",4.53941912445444,"Approved","OW360"
"2023-04-08 09:00",4.54041846316625,"Approved","OW360"
"2023-04-08 10:00",4.54041780187806,"Approved","OW360"
"2023-04-08 11:00",4.54241714058987,"Approved","OW360"
"2023-04-08 12:00",4.54241647930168,"Approved","OW360"
"2023-04-08 13:00",4.54241581801349,"Approved","OW360"
"2023-04-08 14:00",4.5434151567253,"Approved","OW360"
"2023-04-08 15:00",4.54341449543711,"Approved","OW360"
"2023-04-08 16:00",4.54541383414892,"Approved","OW360"
"2023-04-08 17:00",4.54741317286073,"Approved","OW360"
"2023-04-08 18:00",4.54841251157254,"Approved","OW360"
"2023-04-08 19:00",4.54941185028435,"Approved","OW360"
"2023-04-08 20:00",4.55041118899616,"Approved","OW360"
"2023-04-08 21:00",4.55041052770798,"Approved","OW360"
"2023-04-08 22:00",4.55140986641979,"Approved","OW360"
"2023-04-08 23:00",4.5524092051316,"Approved","OW360"
"2023-04-09 00:00",4.55440854384341,"Approved","OW360"
"2023-04-09 01:00",4.55440788255522,"Approved","OW360"
"2023-04-09 02:00",4.55540722126703,"Approved","OW360"
"2023-04-09 03:00",4.55640655997884,"Approved","OW360"
"2023-04-09 04:00",4.55740589869065,"Approved","OW360"
"2023-04-09 05:00",4.55840523740246,"Approved","OW360"
"2023-04-09 06:00",4.55840457611427,"Approved","OW360"
"2023-04-09 07:00",4.55940391482608,"Approved","OW360"
"2023-04-09 08:00",4.55940325353789,"Approved","OW360"
"2023-04-09 09:00",4.5594025922497,"Approved","OW360"
"2023-04-09 10:00",4.56040193096151,"Approved","OW360"
"2023-04-09 11:00",4.56040126967332,"Approved","OW360"
"2023-04-09 12:00",4.56240060838513,"Approved","OW360"
"2023-04-09 13:00",4.56239994709694,"Approved","OW360"
"2023-04-09 14:00",4.56239928580876,"Approved","OW360"
"2023-04-09 15:00",4.56239862452057,"Approved","OW360"
"2023-04-09 16:00",4.56439796323238,"Approved","OW360"
"2023-04-09 17:00",4.56339730194419,"Approved","OW360"
"2023-04-09 18:00",4.563396640656,"Approved","OW360"
"2023-04-09 19:00",4.56439597936781,"Approved","OW360"
"2023-04-09 20:00",4.56439531807962,"Approved","OW360"
"2023-04-09 21:00",4.56739465679143,"Approved","OW360"
"2023-04-09 22:00",4.56739399550324,"Approved","OW360"
"2023-04-09 23:00",4.56939333421505,"Approved","OW360"
"2023-04-10 00:00",4.56939267292686,"Approved","OW360"
"2023-04-10 01:00",4.57239201163867,"Approved","OW360"
"2023-04-10 02:00",4.57339135035048,"Approved","OW360"
"2023-04-10 03:00",4.57439068906229,"Approved","OW360"
"2023-04-10 04:00",4.5783900277741,"Approved","OW360"
"2023-04-10 05:00",4.57938936648591,"Approved","OW360"
"2023-04-10 06:00",4.58038870519773,"Approved","OW360"
"2023-04-10 07:00",4.58138804390954,"Approved","OW360"
"2023-04-10 08:00",4.58138738262135,"Approved","OW360"
"2023-04-10 09:00",4.58238672133316,"Approved","OW360"
"2023-04-10 10:00",4.58238606004497,"Approved","OW360"
"2023-04-10 11:00",4.58438539875678,"Approved","OW360"
"2023-04-10 12:00",4.58338473746859,"Approved","OW360"
"2023-04-10 13:00",4.5833840761804,"Approved","OW360"
"2023-04-10 14:00",4.58438341489221,"Approved","OW360"
"2023-04-10 15:00",4.58438275360402,"Approved","OW360"
"2023-04-10 16:00",4.58538209231583,"Approved","OW360"
"2023-04-10 17:00",4.58538143102764,"Approved","OW360"
"2023-04-10 18:00",4.58638076973945,"Approved","OW360"
"2023-04-10 19:00",4.58738010845126,"Approved","OW360"
"2023-04-10 20:00",4.58737944716307,"Approved","OW360"
"2023-04-10 21:00",4.58737878587488,"Approved","OW360"
"2023-04-10 22:00",4.58737812458669,"Approved","OW360"
"2023-04-10 23:00",4.5883774632985,"Approved","OW360"
"2023-04-11 00:00",4.58737680201032,"Approved","OW360"
"2023-04-11 01:00",4.59237614072213,"Approved","OW360"
"2023-04-11 02:00",4.58837547943394,"Approved","OW360"
"2023-04-11 03:00",4.58937481814575,"Approved","OW360"
"2023-04-11 04:00",4.58937415685756,"Approved","OW360"
"2023-04-11 05:00",4.59137349556937,"Approved","OW360"
"2023-04-11 06:00",4.59037283428118,"Approved","OW360"
"2023-04-11 07:00",4.59037217299299,"Approved","OW360"
"2023-04-11 08:00",4.5923715117048,"Approved","OW360"
"2023-04-11 09:00",4.59237085041661,"Approved","OW360"
"2023-04-11 10:00",4.59337018912842,"Approved","OW360"
"2023-04-11 11:00",4.59336952784023,"Approved","OW360"
"2023-04-11 12:00",4.59436886655204,"Approved","OW360"
"2023-04-11 13:00",4.59536820526385,"Approved","OW360"
"2023-04-11 14:00",4.59536754397566,"Approved","OW360"
"2023-04-11 15:00",4.59636688268747,"Approved","OW360"
"2023-04-11 16:00",4.59736622139929,"Approved","OW360"
"2023-04-11 17:00",4.6003655601111,"Approved","OW360"
"2023-04-11 18:00",4.60036489882291,"Approved","OW360"
"2023-04-11 19:00",4.60136423753472,"Approved","OW360"
"2023-04-11 20:00",4.60236357624653,"Approved","OW360"
"2023-04-11 21:00",4.60336291495834,"Approved","OW360"
"2023-04-11 22:00",4.60436225367015,"Approved","OW360"
"2023-04-11 23:00",4.60536159238196,"Approved","OW360"
"2023-04-12 00:00",4.60536093109377,"Approved","OW360"
"2023-04-12 01:00",4.60636026980558,"Approved","OW360"
"2023-04-12 02:00",4.60635960851739,"Approved","OW360"
"2023-04-12 03:00",4.6083589472292,"Approved","OW360"
"2023-04-12 04:00",4.60935828594101,"Approved","OW360"
"2023-04-12 05:00",4.61035762465282,"Approved","OW360"
"2023-04-12 06:00",4.61135696336463,"Approved","OW360"
"2023-04-12 07:00",4.61035630207645,"Approved","OW360"
"2023-04-12 08:00",4.61135564078826,"Approved","OW360"
"2023-04-12 09:00",4.61135497950007,"Approved","OW360"
"2023-04-12 10:00",4.61135431821188,"Approved","OW360"
"2023-04-12 11:00",4.61235365692369,"Approved","OW360"
"2023-04-12 12:00",4.6133529956355,"Approved","OW360"
"2023-04-12 13:00",4.61435233434731,"Approved","OW360"
"2023-04-12 14:00",4.61535167305912,"Approved","OW360"
"2023-04-12 15:00",4.61535101177093,"Approved","OW360"
"2023-04-12 16:00",4.61535035048274,"Approved","OW360"
"2023-04-12 17:00",4.61634968919455,"Approved","OW360"
"2023-04-12 18:00",4.62034902790636,"Approved","OW360"
"2023-04-12 19:00",4.61834836661817,"Approved","OW360"
"2023-04-12 20:00",4.61734770532998,"Approved","OW360"
"2023-04-12 21:00",4.61834704404179,"Approved","OW360"
"2023-04-12 22:00",4.6193463827536,"Approved","OW360"
"2023-04-12 23:00",4.61934572146541,"Approved","OW360"
"2023-04-13 00:00",4.61834506017722,"Approved","OW360"
"2023-04-13 01:00",4.61934439888904,"Approved","OW360"
"2023-04-13 02:00",4.61934373760085,"Approved","OW360"
"2023-04-13 03:00",4.62134307631266,"Approved","OW360"
"2023-04-13 04:00",4.62134241502447,"Approved","OW360"
"2023-04-13 05:00",4.62334175373628,"Approved","OW360"
"2023-04-13 06:00",4.62334109244809,"Approved","OW360"
"2023-04-13 07:00",4.6233404311599,"Approved","OW360"
"2023-04-13 08:00",4.62433976987171,"Approved","OW360"
"2023-04-13 09:00",4.62433910858352,"Approved","OW360"
"2023-04-13 10:00",4.62433844729533,"Approved","OW360"
"2023-04-13 11:00",4.62533778600714,"Approved","OW360"
"2023-04-13 12:00",4.62533712471895,"Approved","OW360"
"2023-04-13 13:00",4.62533646343076,"Approved","OW360"
"2023-04-13 14:00",4.62633580214257,"Approved","OW360"
"2023-04-13 15:00",4.62733514085438,"Approved","OW360"
"2023-04-13 16:00",4.6273344795662,"Approved","OW360"
"2023-04-13 17:00",4.62733381827801,"Approved","OW360"
"2023-04-13 18:00",4.62933315698982,"Approved","OW360"
"2023-04-13 19:00",4.62833249570163,"Approved","OW360"
"2023-04-13 20:00",4.62833183441344,"Approved","OW360"
"2023-04-13 21:00",4.62833117312525,"Approved","OW360"
"2023-04-13 22:00",4.62933051183706,"Approved","OW360"
"2023-04-13 23:00",4.62932985054887,"Approved","OW360"
"2023-04-14 00:00",4.62932918926068,"Approved","OW360"
"2023-04-14 01:00",4.63032852797249,"Approved","OW360"
"2023-04-14 02:00",4.6303278666843,"Approved","OW360"
"2023-04-14 03:00",4.63132720539611,"Approved","OW360"
"2023-04-14 04:00",4.63232654410792,"Approved","OW360"
"2023-04-14 05:00",4.63332588281973,"Approved","OW360"
"2023-04-14 06:00",4.63332522153154,"Approved","OW360"
"2023-04-14 07:00",4.63432456024335,"Approved","OW360"
"2023-04-14 08:00",4.63432389895516,"Approved","OW360"
"2023-04-14 09:00",4.63432323766698,"Approved","OW360"
"2023-04-14 10:00",4.63532257637879,"Approved","OW360"
"2023-04-14 11:00",4.6353219150906,"Approved","OW360"
"2023-04-14 12:00",4.63632125380241,"Approved","OW360"
"2023-04-14 13:00",4.63632059251422,"Approved","OW360"
"2023-04-14 14:00",4.64031993122603,"Approved","OW360"
"2023-04-14 15:00",4.63831926993784,"Approved","OW360"
"2023-04-14 16:00",4.63831860864965,"Approved","OW360"
"2023-04-14 17:00",4.63831794736146,"Approved","OW360"
"2023-04-14 18:00",4.63931728607327,"Approved","OW360"
"2023-04-14 19:00",4.63931662478508,"Approved","OW360"
"2023-04-14 20:00",4.63931596349689,"Approved","OW360"
"2023-04-14 21:00",4.6403153022087,"Approved","OW360"
"2023-04-14 22:00",4.64031464092051,"Approved","OW360"
"2023-04-14 23:00",4.63931397963232,"Approved","OW360"
"2023-04-15 00:00",4.64031331834413,"Approved","OW360"
"2023-04-15 01:00",4.64031265705595,"Approved","OW360"
"2023-04-15 02:00",4.64131199576776,"Approved","OW360"
"2023-04-15 03:00",4.64131133447957,"Approved","OW360"
"2023-04-15 04:00",4.64331067319138,"Approved","OW360"
"2023-04-15 05:00",4.64331001190319,"Approved","OW360"
"2023-04-15 06:00",4.643309350615,"Approved","OW360"
"2023-04-15 07:00",4.64430868932681,"Approved","OW360"
"2023-04-15 08:00",4.64430802803862,"Approved","OW360"
"2023-04-15 09:00",4.64430736675043,"Approved","OW360"
"2023-04-15 10:00",4.64430670546224,"Approved","OW360"
"2023-04-15 11:00",4.64530604417405,"Approved","OW360"
"2023-04-15 12:00",4.64530538288586,"Approved","OW360"
"2023-04-15 13:00",4.64530472159767,"Approved","OW360"
"2023-04-15 14:00",4.64630406030948,"Approved","OW360"
"2023-04-15 15:00",4.64730339902129,"Approved","OW360"
"2023-04-15 16:00",4.6473027377331,"Approved","OW360"
"2023-04-15 17:00",4.64730207644491,"Approved","OW360"
"2023-04-15 18:00",4.64830141515673,"Approved","OW360"
"2023-04-15 19:00",4.64930075386854,"Approved","OW360"
"2023-04-15 20:00",4.64930009258035,"Approved","OW360"
"2023-04-15 21:00",4.64929943129216,"Approved","OW360"
"2023-04-15 22:00",4.65129877000397,"Approved","OW360"
"2023-04-15 23:00",4.65029810871578,"Approved","OW360"
"2023-04-16 00:00",4.65029744742759,"Approved","OW360"
"2023-04-16 01:00",4.6492967861394,"Approved","OW360"
"2023-04-16 02:00",4.64929612485121,"Approved","OW360"
"2023-04-16 03:00",4.64929546356302,"Approved","OW360"
"2023-04-16 04:00",4.64929480227483,"Approved","OW360"
"2023-04-16 05:00",4.65029414098664,"Approved","OW360"
"2023-04-16 06:00",4.65029347969845,"Approved","OW360"
"2023-04-16 07:00",4.65029281841026,"Approved","OW360"
"2023-04-16 08:00",4.64929215712207,"Approved","OW360"
"2023-04-16 09:00",4.64829149583388,"Approved","OW360"
"2023-04-16 10:00",4.64729083454569,"Approved","OW360"
"2023-04-16 11:00",4.64729017325751,"Approved","OW360"
"2023-04-16 12:00",4.64728951196932,"Approved","OW360"
"2023-04-16 13:00",4.64728885068113,"Approved","OW360"
"2023-04-16 14:00",4.64628818939294,"Approved","OW360"
"2023-04-16 15:00",4.64528752810475,"Approved","OW360"
"2023-04-16 16:00",4.64428686681656,"Approved","OW360"
"2023-04-16 17:00",4.64628620552837,"Approved","OW360"
"2023-04-16 18:00",4.64728554424018,"Approved","OW360"
"2023-04-16 19:00",4.64728488295199,"Approved","OW360"